Time,TemperatureF,DewpointF,PressureIn,WindDirection,WindDirectionDegrees,WindSpeedMPH,WindSpeedGustMPH,Humidity,HourlyPrecipIn,Conditions,Clouds,dailyrainin,SoftwareType,DateUTC
2013-03-09 00:00:00,26.2,23.9,30.43,East,87,0.0,2.0,91,0.00,,---,0.00,VWS V14.01,2013-03-09 05:00:00,
2013-03-09 00:01:00,26.2,23.9,30.44,East,87,0.0,2.0,91,0.00,,---,0.00,VWS V14.01,2013-03-09 05:01:00,
2013-03-09 00:06:00,26.2,23.9,30.43,East,88,0.0,0.0,91,0.00,,---,0.00,VWS V14.01,2013-03-09 05:06:00,
2013-03-09 00:11:00,26.1,23.8,30.43,East,87,0.0,0.0,91,0.00,,---,0.00,VWS V14.01,2013-03-09 05:11:00,
2013-03-09 00:17:00,26.1,23.8,30.43,East,87,0.0,1.0,91,0.00,,---,0.00,VWS V14.01,2013-03-09 05:17:00,
2013-03-09 00:22:00,26.0,23.7,30.43,East,87,0.0,1.0,91,0.00,,---,0.00,VWS V14.01,2013-03-09 05:22:00,
2013-03-09 00:27:00,25.8,23.5,30.43,East,87,0.0,1.0,91,0.00,,---,0.00,VWS V14.01,2013-03-09 05:27:00,
2013-03-09 00:32:00,25.7,23.4,30.43,East,87,0.0,1.0,91,0.00,,---,0.00,VWS V14.01,2013-03-09 05:32:00,
2013-03-09 00:37:00,25.5,23.2,30.43,East,88,0.0,1.0,91,0.00,,---,0.00,VWS V14.01,2013-03-09 05:37:00,
2013-03-09 00:42:00,27.3,25.8,30.43,SE,129,3.0,5.0,94,0.00,,---,0.00,VWS V14.01,2013-03-09 05:42:00,
2013-03-09 00:47:00,29.1,26.8,30.43,ESE,108,3.0,5.0,91,0.00,,---,0.00,VWS V14.01,2013-03-09 05:47:00,
2013-03-09 00:52:00,30.0,26.6,30.43,SE,124,4.0,6.0,87,0.00,,---,0.00,VWS V14.01,2013-03-09 05:52:00,
2013-03-09 00:58:00,30.4,26.4,30.43,SE,129,2.0,6.0,85,0.00,,---,0.00,VWS V14.01,2013-03-09 05:58:00,
2013-03-09 01:03:00,30.5,26.5,30.42,SE,135,3.0,6.0,85,0.00,,---,0.00,VWS V14.01,2013-03-09 06:03:00,
2013-03-09 01:08:00,30.6,26.4,30.42,ESE,107,2.0,6.0,84,0.00,,---,0.00,VWS V14.01,2013-03-09 06:08:00,
2013-03-09 01:13:00,30.6,26.4,30.42,ESE,111,2.0,6.0,84,0.00,,---,0.00,VWS V14.01,2013-03-09 06:13:00,
2013-03-09 01:18:00,30.7,26.5,30.42,SE,124,4.0,6.0,84,0.00,,---,0.00,VWS V14.01,2013-03-09 06:18:00,
2013-03-09 01:23:00,30.8,26.3,30.43,ESE,115,5.0,6.0,83,0.00,,---,0.00,VWS V14.01,2013-03-09 06:23:00,
2013-03-09 01:28:00,30.9,26.4,30.42,ESE,117,2.0,6.0,83,0.00,,---,0.00,VWS V14.01,2013-03-09 06:28:00,
2013-03-09 01:33:00,31.0,26.5,30.42,SE,127,2.0,6.0,83,0.00,,---,0.00,VWS V14.01,2013-03-09 06:33:00,
2013-03-09 01:38:00,31.0,26.2,30.42,SSE,150,1.0,6.0,82,0.00,,---,0.00,VWS V14.01,2013-03-09 06:38:00,
2013-03-09 01:44:00,30.7,26.2,30.42,SSE,163,2.0,6.0,83,0.00,,---,0.00,VWS V14.01,2013-03-09 06:44:00,
2013-03-09 01:49:00,30.6,26.1,30.42,SSE,150,2.0,6.0,83,0.00,,---,0.00,VWS V14.01,2013-03-09 06:49:00,
2013-03-09 01:54:00,30.6,26.1,30.42,SSE,148,1.0,6.0,83,0.00,,---,0.00,VWS V14.01,2013-03-09 06:54:00,
2013-03-09 01:59:00,30.7,26.2,30.42,SSE,158,2.0,6.0,83,0.00,,---,0.00,VWS V14.01,2013-03-09 06:59:00,
2013-03-09 02:04:00,30.6,26.1,30.42,SSE,150,2.0,2.0,83,0.00,,---,0.00,VWS V14.01,2013-03-09 07:04:00,
2013-03-09 02:09:00,30.5,26.0,30.42,SSE,148,2.0,3.0,83,0.00,,---,0.00,VWS V14.01,2013-03-09 07:09:00,
2013-03-09 02:14:00,30.4,25.9,30.42,SSE,163,2.0,3.0,83,0.00,,---,0.00,VWS V14.01,2013-03-09 07:14:00,
2013-03-09 02:19:00,30.3,25.8,30.42,SE,129,1.0,3.0,83,0.00,,---,0.00,VWS V14.01,2013-03-09 07:19:00,
2013-03-09 02:24:00,30.1,25.6,30.42,SE,129,1.0,3.0,83,0.00,,---,0.00,VWS V14.01,2013-03-09 07:24:00,
2013-03-09 02:30:00,30.0,25.8,30.42,SSE,157,1.0,3.0,84,0.00,,---,0.00,VWS V14.01,2013-03-09 07:30:00,
2013-03-09 02:35:00,30.0,25.8,30.42,SE,143,2.0,3.0,84,0.00,,---,0.00,VWS V14.01,2013-03-09 07:35:00,
2013-03-09 02:40:00,29.9,25.7,30.41,SE,143,2.0,3.0,84,0.00,,---,0.00,VWS V14.01,2013-03-09 07:40:00,
2013-03-09 02:45:00,29.7,25.5,30.41,SE,136,1.0,3.0,84,0.00,,---,0.00,VWS V14.01,2013-03-09 07:45:00,
2013-03-09 02:50:00,29.6,25.4,30.41,SE,138,1.0,3.0,84,0.00,,---,0.00,VWS V14.01,2013-03-09 07:50:00,
2013-03-09 02:55:00,29.4,25.2,30.41,SE,143,1.0,3.0,84,0.00,,---,0.00,VWS V14.01,2013-03-09 07:55:00,
2013-03-09 03:00:00,28.9,24.7,30.41,SE,143,0.0,3.0,84,0.00,,---,0.00,VWS V14.01,2013-03-09 08:00:00,
2013-03-09 03:05:00,28.3,24.1,30.40,SE,143,0.0,0.0,84,0.00,,---,0.00,VWS V14.01,2013-03-09 08:05:00,
2013-03-09 03:10:00,27.7,23.8,30.40,SE,138,1.0,1.0,85,0.00,,---,0.00,VWS V14.01,2013-03-09 08:10:00,
2013-03-09 03:16:00,27.8,24.7,30.39,SE,136,1.0,2.0,88,0.00,,---,0.00,VWS V14.01,2013-03-09 08:16:00,
2013-03-09 03:21:00,28.2,24.8,30.39,ESE,114,1.0,2.0,87,0.00,,---,0.00,VWS V14.01,2013-03-09 08:21:00,
2013-03-09 03:26:00,28.3,24.9,30.39,ESE,107,1.0,2.0,87,0.00,,---,0.00,VWS V14.01,2013-03-09 08:26:00,
2013-03-09 03:31:00,28.3,24.9,30.39,SE,124,1.0,2.0,87,0.00,,---,0.00,VWS V14.01,2013-03-09 08:31:00,
2013-03-09 03:36:00,28.4,25.0,30.38,East,92,2.0,3.0,87,0.00,,---,0.00,VWS V14.01,2013-03-09 08:36:00,
2013-03-09 03:41:00,28.4,24.8,30.38,ESE,115,1.0,3.0,86,0.00,,---,0.00,VWS V14.01,2013-03-09 08:41:00,
2013-03-09 03:46:00,28.5,25.1,30.38,ESE,115,1.0,3.0,87,0.00,,---,0.00,VWS V14.01,2013-03-09 08:46:00,
2013-03-09 03:51:00,28.5,24.9,30.38,SE,127,0.0,3.0,86,0.00,,---,0.00,VWS V14.01,2013-03-09 08:51:00,
2013-03-09 03:57:00,28.3,24.7,30.38,SE,127,1.0,3.0,86,0.00,,---,0.00,VWS V14.01,2013-03-09 08:57:00,
2013-03-09 04:02:00,28.0,24.4,30.38,SE,128,0.0,0.0,86,0.00,,---,0.00,VWS V14.01,2013-03-09 09:02:00,
2013-03-09 04:07:00,27.8,24.4,30.38,SSE,160,0.0,1.0,87,0.00,,---,0.00,VWS V14.01,2013-03-09 09:07:00,
2013-03-09 04:12:00,27.6,24.2,30.38,SSE,158,0.0,1.0,87,0.00,,---,0.00,VWS V14.01,2013-03-09 09:12:00,
2013-03-09 04:17:00,27.5,24.4,30.38,SE,138,0.0,1.0,88,0.00,,---,0.00,VWS V14.01,2013-03-09 09:17:00,
2013-03-09 04:22:00,27.3,24.2,30.38,SE,138,0.0,1.0,88,0.00,,---,0.00,VWS V14.01,2013-03-09 09:22:00,
2013-03-09 04:27:00,27.1,24.0,30.37,SE,129,1.0,1.0,88,0.00,,---,0.00,VWS V14.01,2013-03-09 09:27:00,
2013-03-09 04:32:00,27.3,24.5,30.38,ESE,111,1.0,1.0,89,0.00,,---,0.00,VWS V14.01,2013-03-09 09:32:00,
2013-03-09 04:38:00,27.4,24.6,30.38,ESE,123,1.0,2.0,89,0.00,,---,0.00,VWS V14.01,2013-03-09 09:38:00,
2013-03-09 04:43:00,27.7,24.9,30.38,ESE,114,1.0,2.0,89,0.00,,---,0.00,VWS V14.01,2013-03-09 09:43:00,
2013-03-09 04:48:00,27.7,24.6,30.38,ESE,113,0.0,2.0,88,0.00,,---,0.00,VWS V14.01,2013-03-09 09:48:00,
2013-03-09 04:53:00,27.4,24.3,30.38,SE,133,0.0,2.0,88,0.00,,---,0.00,VWS V14.01,2013-03-09 09:53:00,
2013-03-09 04:58:00,26.8,23.5,30.38,SE,132,0.0,2.0,87,0.00,,---,0.00,VWS V14.01,2013-03-09 09:58:00,
2013-03-09 05:03:00,26.4,23.3,30.38,SE,132,0.0,0.0,88,0.00,,---,0.00,VWS V14.01,2013-03-09 10:03:00,
2013-03-09 05:08:00,26.5,24.0,30.38,ESE,104,2.0,2.0,90,0.00,,---,0.00,VWS V14.01,2013-03-09 10:08:00,
2013-03-09 05:13:00,27.1,24.6,30.38,SE,139,2.0,3.0,90,0.00,,---,0.00,VWS V14.01,2013-03-09 10:13:00,
2013-03-09 05:18:00,27.6,25.1,30.37,ESE,103,5.0,5.0,90,0.00,,---,0.00,VWS V14.01,2013-03-09 10:18:00,
2013-03-09 05:24:00,27.9,25.1,30.38,ESE,120,2.0,5.0,89,0.00,,---,0.00,VWS V14.01,2013-03-09 10:24:00,
2013-03-09 05:29:00,28.1,25.3,30.38,SE,131,3.0,5.0,89,0.00,,---,0.00,VWS V14.01,2013-03-09 10:29:00,
2013-03-09 05:34:00,28.3,25.5,30.38,SE,142,3.0,5.0,89,0.00,,---,0.00,VWS V14.01,2013-03-09 10:34:00,
2013-03-09 05:39:00,28.4,25.3,30.38,SE,124,1.0,5.0,88,0.00,,---,0.00,VWS V14.01,2013-03-09 10:39:00,
2013-03-09 05:44:00,28.3,25.2,30.38,ESE,121,2.0,5.0,88,0.00,,---,0.00,VWS V14.01,2013-03-09 10:44:00,
2013-03-09 05:49:00,28.4,25.6,30.38,SE,124,4.0,5.0,89,0.00,,---,0.00,VWS V14.01,2013-03-09 10:49:00,
2013-03-09 05:54:00,28.5,25.4,30.38,ESE,120,2.0,5.0,88,0.00,,---,0.00,VWS V14.01,2013-03-09 10:54:00,
2013-03-09 05:59:00,28.4,25.3,30.38,SE,131,2.0,5.0,88,0.00,,---,0.00,VWS V14.01,2013-03-09 10:59:00,
2013-03-09 06:04:00,28.3,25.2,30.38,SSE,148,1.0,3.0,88,0.00,,---,0.00,VWS V14.01,2013-03-09 11:04:00,
2013-03-09 06:10:00,28.2,25.1,30.38,SE,142,2.0,3.0,88,0.00,,---,0.00,VWS V14.01,2013-03-09 11:10:00,
2013-03-09 06:15:00,28.1,25.0,30.39,SE,133,1.0,3.0,88,0.00,,---,0.00,VWS V14.01,2013-03-09 11:15:00,
2013-03-09 06:20:00,28.0,25.2,30.39,ESE,118,1.0,3.0,89,0.00,,---,0.00,VWS V14.01,2013-03-09 11:20:00,
2013-03-09 06:25:00,27.9,25.1,30.39,ESE,115,3.0,3.0,89,0.00,,---,0.00,VWS V14.01,2013-03-09 11:25:00,
2013-03-09 06:30:00,27.9,25.1,30.39,SE,127,1.0,3.0,89,0.00,,---,0.00,VWS V14.01,2013-03-09 11:30:00,
2013-03-09 06:35:00,27.9,25.1,30.38,ESE,110,3.0,3.0,89,0.00,,---,0.00,VWS V14.01,2013-03-09 11:35:00,
2013-03-09 06:41:00,28.0,25.2,30.38,SE,134,3.0,4.0,89,0.00,,---,0.00,VWS V14.01,2013-03-09 11:41:00,
2013-03-09 06:46:00,28.1,25.3,30.38,SE,125,2.0,5.0,89,0.00,,---,0.00,VWS V14.01,2013-03-09 11:46:00,
2013-03-09 06:51:00,28.1,25.3,30.38,SE,129,2.0,5.0,89,0.00,,---,0.00,VWS V14.01,2013-03-09 11:51:00,
2013-03-09 06:56:00,28.3,25.5,30.38,ESE,122,4.0,5.0,89,0.00,,---,0.00,VWS V14.01,2013-03-09 11:56:00,
2013-03-09 07:01:00,28.3,25.5,30.38,ESE,114,3.0,5.0,89,0.00,,---,0.00,VWS V14.01,2013-03-09 12:01:00,
2013-03-09 07:06:00,28.3,25.5,30.37,SE,142,2.0,4.0,89,0.00,,---,0.00,VWS V14.01,2013-03-09 12:06:00,
2013-03-09 07:11:00,28.4,25.6,30.37,SE,138,1.0,4.0,89,0.00,,---,0.00,VWS V14.01,2013-03-09 12:11:00,
2013-03-09 07:16:00,28.6,25.8,30.36,ESE,120,4.0,6.0,89,0.00,,---,0.00,VWS V14.01,2013-03-09 12:16:00,
2013-03-09 07:22:00,28.9,26.1,30.36,ESE,118,2.0,6.0,89,0.00,,---,0.00,VWS V14.01,2013-03-09 12:22:00,
2013-03-09 07:27:00,29.2,26.1,30.36,ESE,115,3.0,8.0,88,0.00,,---,0.00,VWS V14.01,2013-03-09 12:27:00,
2013-03-09 07:32:00,29.3,26.2,30.36,SE,127,5.0,8.0,88,0.00,,---,0.00,VWS V14.01,2013-03-09 12:32:00,
2013-03-09 07:37:00,29.4,26.3,30.36,East,91,2.0,8.0,88,0.00,,---,0.00,VWS V14.01,2013-03-09 12:37:00,
2013-03-09 07:42:00,29.4,26.3,30.36,ESE,120,3.0,8.0,88,0.00,,---,0.00,VWS V14.01,2013-03-09 12:42:00,
2013-03-09 07:47:00,29.5,26.4,30.36,SSE,155,3.0,8.0,88,0.00,,---,0.00,VWS V14.01,2013-03-09 12:47:00,
2013-03-09 07:52:00,29.6,26.5,30.36,SSE,155,4.0,8.0,88,0.00,,---,0.00,VWS V14.01,2013-03-09 12:52:00,
2013-03-09 07:58:00,29.8,26.7,30.36,SE,129,5.0,8.0,88,0.00,,---,0.00,VWS V14.01,2013-03-09 12:58:00,
2013-03-09 08:03:00,29.9,26.5,30.36,SSE,150,4.0,7.0,87,0.00,,---,0.00,VWS V14.01,2013-03-09 13:03:00,
2013-03-09 08:08:00,30.1,26.7,30.36,SE,124,3.0,7.0,87,0.00,,---,0.00,VWS V14.01,2013-03-09 13:08:00,
2013-03-09 08:13:00,30.2,26.8,30.36,SE,129,5.0,8.0,87,0.00,,---,0.00,VWS V14.01,2013-03-09 13:13:00,
2013-03-09 08:18:00,30.2,26.5,30.37,SE,141,2.0,8.0,86,0.00,,---,0.00,VWS V14.01,2013-03-09 13:18:00,
2013-03-09 08:23:00,30.4,26.7,30.37,SE,146,5.0,8.0,86,0.00,,---,0.00,VWS V14.01,2013-03-09 13:23:00,
2013-03-09 08:28:00,30.6,26.6,30.36,SE,131,5.0,8.0,85,0.00,,---,0.00,VWS V14.01,2013-03-09 13:28:00,
2013-03-09 08:33:00,30.8,26.8,30.36,SE,146,6.0,8.0,85,0.00,,---,0.00,VWS V14.01,2013-03-09 13:33:00,
2013-03-09 08:39:00,31.0,26.7,30.36,SE,135,4.0,8.0,84,0.00,,---,0.00,VWS V14.01,2013-03-09 13:39:00,
2013-03-09 08:44:00,31.4,27.1,30.36,SE,139,3.0,8.0,84,0.00,,---,0.00,VWS V14.01,2013-03-09 13:44:00,
2013-03-09 08:49:00,31.8,27.5,30.37,SE,129,3.0,8.0,84,0.00,,---,0.00,VWS V14.01,2013-03-09 13:49:00,
2013-03-09 08:54:00,32.1,27.5,30.37,SE,141,4.0,8.0,83,0.00,,---,0.00,VWS V14.01,2013-03-09 13:54:00,
2013-03-09 08:59:00,32.4,27.8,30.37,ESE,110,4.0,8.0,83,0.00,,---,0.00,VWS V14.01,2013-03-09 13:59:00,
2013-03-09 09:04:00,32.7,27.8,30.37,SE,143,2.0,8.0,82,0.00,,---,0.00,VWS V14.01,2013-03-09 14:04:00,
2013-03-09 09:09:00,33.2,28.0,30.36,SSE,156,6.0,10.0,81,0.00,,---,0.00,VWS V14.01,2013-03-09 14:09:00,
2013-03-09 09:14:00,33.6,28.4,30.37,SSE,163,4.0,10.0,81,0.00,,---,0.00,VWS V14.01,2013-03-09 14:14:00,
2013-03-09 09:19:00,33.9,28.4,30.36,SE,145,5.0,11.0,80,0.00,,---,0.00,VWS V14.01,2013-03-09 14:19:00,
2013-03-09 09:24:00,34.3,28.5,30.36,ESE,109,4.0,11.0,79,0.00,,---,0.00,VWS V14.01,2013-03-09 14:24:00,
2013-03-09 09:29:00,34.5,28.7,30.36,SE,136,3.0,12.0,79,0.00,,---,0.00,VWS V14.01,2013-03-09 14:29:00,
2013-03-09 09:35:00,34.8,29.0,30.36,SSE,163,8.0,12.0,79,0.00,,---,0.00,VWS V14.01,2013-03-09 14:35:00,
2013-03-09 09:40:00,34.9,28.8,30.37,SSE,159,3.0,12.0,78,0.00,,---,0.00,VWS V14.01,2013-03-09 14:40:00,
2013-03-09 09:45:00,35.3,29.1,30.36,SE,132,5.0,12.0,78,0.00,,---,0.00,VWS V14.01,2013-03-09 14:45:00,
2013-03-09 09:50:00,35.5,29.0,30.36,SSW,194,2.0,13.0,77,0.00,,---,0.00,VWS V14.01,2013-03-09 14:50:00,
2013-03-09 09:55:00,35.7,29.2,30.36,SE,127,4.0,15.0,77,0.00,,---,0.00,VWS V14.01,2013-03-09 14:55:00,
2013-03-09 10:00:00,35.9,29.1,30.35,South,173,7.0,15.0,76,0.00,,---,0.00,VWS V14.01,2013-03-09 15:00:00,
2013-03-09 10:05:00,36.2,29.4,30.35,SSE,150,8.0,11.0,76,0.00,,---,0.00,VWS V14.01,2013-03-09 15:05:00,
2013-03-09 10:10:00,36.3,29.1,30.34,SSW,212,10.0,12.0,75,0.00,,---,0.00,VWS V14.01,2013-03-09 15:10:00,
2013-03-09 10:16:00,36.5,29.3,30.34,SE,139,4.0,14.0,75,0.00,,---,0.00,VWS V14.01,2013-03-09 15:16:00,
2013-03-09 10:21:00,36.8,29.6,30.34,SE,146,4.0,14.0,75,0.00,,---,0.00,VWS V14.01,2013-03-09 15:21:00,
2013-03-09 10:26:00,36.8,29.3,30.34,SSE,155,6.0,14.0,74,0.00,,---,0.00,VWS V14.01,2013-03-09 15:26:00,
2013-03-09 10:31:00,36.9,29.7,30.33,SSW,197,7.0,14.0,75,0.00,,---,0.00,VWS V14.01,2013-03-09 15:31:00,
2013-03-09 10:36:00,37.1,29.6,30.34,SSE,153,4.0,14.0,74,0.00,,---,0.00,VWS V14.01,2013-03-09 15:36:00,
2013-03-09 10:41:00,37.2,29.7,30.34,SSW,203,9.0,14.0,74,0.00,,---,0.00,VWS V14.01,2013-03-09 15:41:00,
2013-03-09 10:46:00,37.2,29.4,30.33,South,174,8.0,14.0,73,0.00,,---,0.00,VWS V14.01,2013-03-09 15:46:00,
2013-03-09 10:52:00,37.2,29.7,30.33,ESE,104,8.0,14.0,74,0.00,,---,0.00,VWS V14.01,2013-03-09 15:52:00,
2013-03-09 10:57:00,37.1,29.6,30.34,SSE,149,9.0,14.0,74,0.00,,---,0.00,VWS V14.01,2013-03-09 15:57:00,
2013-03-09 11:02:00,37.1,29.9,30.33,SSE,155,5.0,7.0,75,0.00,,---,0.00,VWS V14.01,2013-03-09 16:02:00,
2013-03-09 11:07:00,37.2,29.7,30.33,SE,133,9.0,13.0,74,0.00,,---,0.00,VWS V14.01,2013-03-09 16:07:00,
2013-03-09 11:12:00,37.2,29.7,30.33,SE,131,6.0,13.0,74,0.00,,---,0.00,VWS V14.01,2013-03-09 16:12:00,
2013-03-09 11:17:00,37.5,30.3,30.34,SE,143,8.0,13.0,75,0.00,,---,0.00,VWS V14.01,2013-03-09 16:17:00,
2013-03-09 11:22:00,37.7,30.2,30.33,SE,133,7.0,14.0,74,0.00,,---,0.00,VWS V14.01,2013-03-09 16:22:00,
2013-03-09 11:27:00,37.8,29.9,30.33,SE,135,5.0,14.0,73,0.00,,---,0.00,VWS V14.01,2013-03-09 16:27:00,
2013-03-09 11:32:00,38.0,30.1,30.33,SE,142,7.0,14.0,73,0.00,,---,0.00,VWS V14.01,2013-03-09 16:32:00,
2013-03-09 11:38:00,38.1,29.9,30.32,ESE,113,3.0,14.0,72,0.00,,---,0.00,VWS V14.01,2013-03-09 16:38:00,
2013-03-09 11:43:00,38.2,30.0,30.32,ESE,115,11.0,14.0,72,0.00,,---,0.00,VWS V14.01,2013-03-09 16:43:00,
2013-03-09 11:48:00,38.4,30.2,30.31,ESE,121,11.0,14.0,72,0.00,,---,0.00,VWS V14.01,2013-03-09 16:48:00,
2013-03-09 11:53:00,38.6,30.0,30.31,ESE,108,7.0,14.0,71,0.00,,---,0.00,VWS V14.01,2013-03-09 16:53:00,
2013-03-09 11:58:00,39.0,30.4,30.31,SE,126,8.0,14.0,71,0.00,,---,0.00,VWS V14.01,2013-03-09 16:58:00,
2013-03-09 12:03:00,38.8,30.6,30.30,SSE,155,1.0,9.0,72,0.00,,---,0.00,VWS V14.01,2013-03-09 17:03:00,
2013-03-09 12:09:00,38.9,30.7,30.30,SE,142,9.0,14.0,72,0.00,,---,0.00,VWS V14.01,2013-03-09 17:09:00,
2013-03-09 12:14:00,39.4,30.4,30.30,SE,124,12.0,14.0,70,0.00,,---,0.00,VWS V14.01,2013-03-09 17:14:00,
2013-03-09 12:19:00,39.7,30.4,30.31,SSE,160,8.0,15.0,69,0.00,,---,0.00,VWS V14.01,2013-03-09 17:19:00,
2013-03-09 12:24:00,39.8,30.5,30.31,ESE,111,7.0,15.0,69,0.00,,---,0.00,VWS V14.01,2013-03-09 17:24:00,
2013-03-09 12:29:00,40.2,31.2,30.31,SSE,156,8.0,15.0,70,0.00,,---,0.00,VWS V14.01,2013-03-09 17:29:00,
2013-03-09 12:34:00,40.3,30.6,30.30,SE,129,9.0,15.0,68,0.00,,---,0.00,VWS V14.01,2013-03-09 17:34:00,
2013-03-09 12:39:00,40.3,31.0,30.30,SSE,166,5.0,15.0,69,0.00,,---,0.00,VWS V14.01,2013-03-09 17:39:00,
2013-03-09 12:44:00,40.7,31.3,30.30,SSW,197,11.0,15.0,69,0.00,,---,0.00,VWS V14.01,2013-03-09 17:44:00,
2013-03-09 12:50:00,40.7,31.3,30.30,SSE,153,10.0,15.0,69,0.00,,---,0.00,VWS V14.01,2013-03-09 17:50:00,
2013-03-09 12:55:00,40.8,31.1,30.30,South,169,5.0,15.0,68,0.00,,---,0.00,VWS V14.01,2013-03-09 17:55:00,
2013-03-09 13:00:00,41.2,31.1,30.29,SSW,193,9.0,15.0,67,0.00,,---,0.00,VWS V14.01,2013-03-09 18:00:00,
2013-03-09 13:05:00,41.3,30.8,30.29,SSW,194,12.0,14.0,66,0.00,,---,0.00,VWS V14.01,2013-03-09 18:05:00,
2013-03-09 13:10:00,41.1,30.2,30.29,South,188,11.0,15.0,65,0.00,,---,0.00,VWS V14.01,2013-03-09 18:10:00,
2013-03-09 13:15:00,41.0,30.5,30.29,SE,140,5.0,15.0,66,0.00,,---,0.00,VWS V14.01,2013-03-09 18:15:00,
2013-03-09 13:20:00,41.1,30.6,30.28,ESE,117,5.0,15.0,66,0.00,,---,0.00,VWS V14.01,2013-03-09 18:20:00,
2013-03-09 13:25:00,41.3,30.8,30.27,SE,131,6.0,15.0,66,0.00,,---,0.00,VWS V14.01,2013-03-09 18:25:00,
2013-03-09 13:30:00,41.5,30.6,30.26,ESE,117,4.0,15.0,65,0.00,,---,0.00,VWS V14.01,2013-03-09 18:30:00,
2013-03-09 13:36:00,41.4,30.1,30.26,East,99,6.0,15.0,64,0.00,,---,0.00,VWS V14.01,2013-03-09 18:36:00,
2013-03-09 13:41:00,41.2,30.3,30.25,ESE,105,8.0,15.0,65,0.00,,---,0.00,VWS V14.01,2013-03-09 18:41:00,
2013-03-09 13:46:00,41.0,30.1,30.25,SE,142,5.0,15.0,65,0.00,,---,0.00,VWS V14.01,2013-03-09 18:46:00,
2013-03-09 13:51:00,40.8,29.6,30.25,SE,127,4.0,15.0,64,0.00,,---,0.00,VWS V14.01,2013-03-09 18:51:00,
2013-03-09 13:56:00,40.9,29.7,30.24,SSE,150,9.0,15.0,64,0.00,,---,0.00,VWS V14.01,2013-03-09 18:56:00,
2013-03-09 14:01:00,41.1,29.9,30.24,SSE,167,9.0,15.0,64,0.00,,---,0.00,VWS V14.01,2013-03-09 19:01:00,
2013-03-09 14:06:00,41.0,29.4,30.24,SSW,202,6.0,15.0,63,0.00,,---,0.00,VWS V14.01,2013-03-09 19:06:00,
2013-03-09 14:11:00,41.1,29.5,30.24,SE,146,10.0,15.0,63,0.00,,---,0.00,VWS V14.01,2013-03-09 19:11:00,
2013-03-09 14:17:00,41.2,29.6,30.24,South,169,4.0,15.0,63,0.00,,---,0.00,VWS V14.01,2013-03-09 19:17:00,
2013-03-09 14:22:00,41.4,29.0,30.23,SE,142,7.0,15.0,61,0.00,,---,0.00,VWS V14.01,2013-03-09 19:22:00,
2013-03-09 14:27:00,41.9,29.9,30.23,SSW,192,10.0,15.0,62,0.00,,---,0.00,VWS V14.01,2013-03-09 19:27:00,
2013-03-09 14:32:00,42.5,30.4,30.23,East,89,4.0,15.0,62,0.00,,---,0.00,VWS V14.01,2013-03-09 19:32:00,
2013-03-09 14:37:00,42.5,30.0,30.22,SE,135,5.0,15.0,61,0.00,,---,0.00,VWS V14.01,2013-03-09 19:37:00,
2013-03-09 14:43:00,41.8,28.1,30.22,SE,138,7.0,16.0,58,0.00,,---,0.00,VWS V14.01,2013-03-09 19:43:00,
2013-03-09 14:48:00,41.6,29.2,30.21,SSW,207,8.0,16.0,61,0.00,,---,0.00,VWS V14.01,2013-03-09 19:48:00,
2013-03-09 14:53:00,41.8,29.4,30.21,East,94,5.0,16.0,61,0.00,,---,0.00,VWS V14.01,2013-03-09 19:53:00,
2013-03-09 14:58:00,41.9,29.5,30.21,ESE,118,5.0,16.0,61,0.00,,---,0.00,VWS V14.01,2013-03-09 19:58:00,
2013-03-09 15:03:00,42.1,29.6,30.20,SE,143,5.0,10.0,61,0.00,,---,0.00,VWS V14.01,2013-03-09 20:03:00,
2013-03-09 15:08:00,41.9,29.9,30.20,SE,124,7.0,13.0,62,0.00,,---,0.00,VWS V14.01,2013-03-09 20:08:00,
2013-03-09 15:13:00,41.8,30.1,30.20,SE,136,6.0,13.0,63,0.00,,---,0.00,VWS V14.01,2013-03-09 20:13:00,
2013-03-09 15:18:00,41.5,29.1,30.20,SE,128,8.0,14.0,61,0.00,,---,0.00,VWS V14.01,2013-03-09 20:18:00,
2013-03-09 15:23:00,41.3,29.3,30.19,SE,132,4.0,14.0,62,0.00,,---,0.00,VWS V14.01,2013-03-09 20:23:00,
2013-03-09 15:29:00,41.1,28.7,30.19,SE,146,4.0,14.0,61,0.00,,---,0.00,VWS V14.01,2013-03-09 20:29:00,
2013-03-09 15:34:00,40.9,28.9,30.19,SE,129,4.0,14.0,62,0.00,,---,0.00,VWS V14.01,2013-03-09 20:34:00,
2013-03-09 15:39:00,40.8,28.8,30.19,SSE,157,5.0,14.0,62,0.00,,---,0.00,VWS V14.01,2013-03-09 20:39:00,
2013-03-09 15:44:00,40.8,29.2,30.19,SE,127,10.0,14.0,63,0.00,,---,0.00,VWS V14.01,2013-03-09 20:44:00,
2013-03-09 15:49:00,40.8,29.2,30.19,SE,143,3.0,14.0,63,0.00,,---,0.00,VWS V14.01,2013-03-09 20:49:00,
2013-03-09 15:54:00,40.9,29.7,30.18,SE,125,4.0,14.0,64,0.00,,---,0.00,VWS V14.01,2013-03-09 20:54:00,
2013-03-09 15:59:00,40.8,29.2,30.17,SE,130,11.0,14.0,63,0.00,,---,0.00,VWS V14.01,2013-03-09 20:59:00,
2013-03-09 16:05:00,40.7,29.5,30.17,East,100,7.0,16.0,64,0.00,,---,0.00,VWS V14.01,2013-03-09 21:05:00,
2013-03-09 16:10:00,40.7,29.5,30.17,SE,140,6.0,16.0,64,0.00,,---,0.00,VWS V14.01,2013-03-09 21:10:00,
2013-03-09 16:15:00,40.7,29.9,30.17,SE,129,8.0,16.0,65,0.00,,---,0.00,VWS V14.01,2013-03-09 21:15:00,
2013-03-09 16:20:00,40.7,29.9,30.17,ESE,108,5.0,16.0,65,0.00,,---,0.00,VWS V14.01,2013-03-09 21:20:00,
2013-03-09 16:25:00,40.7,29.9,30.17,ESE,114,5.0,16.0,65,0.00,,---,0.00,VWS V14.01,2013-03-09 21:25:00,
2013-03-09 16:30:00,40.7,30.2,30.17,ESE,111,4.0,16.0,66,0.00,,---,0.00,VWS V14.01,2013-03-09 21:30:00,
2013-03-09 16:35:00,40.8,30.3,30.17,ESE,117,3.0,16.0,66,0.00,,---,0.00,VWS V14.01,2013-03-09 21:35:00,
2013-03-09 16:41:00,40.8,30.3,30.17,ESE,103,7.0,16.0,66,0.00,,---,0.00,VWS V14.01,2013-03-09 21:41:00,
2013-03-09 16:46:00,40.8,30.3,30.17,SE,127,3.0,16.0,66,0.00,,---,0.00,VWS V14.01,2013-03-09 21:46:00,
2013-03-09 16:51:00,40.9,30.4,30.17,ESE,115,5.0,16.0,66,0.00,,---,0.00,VWS V14.01,2013-03-09 21:51:00,
2013-03-09 16:56:00,40.9,30.4,30.17,ESE,117,6.0,16.0,66,0.00,,---,0.00,VWS V14.01,2013-03-09 21:56:00,
2013-03-09 17:01:00,40.8,30.7,30.17,SSE,153,3.0,16.0,67,0.00,,---,0.00,VWS V14.01,2013-03-09 22:01:00,
2013-03-09 17:06:00,40.8,30.7,30.17,SE,136,8.0,11.0,67,0.00,,---,0.00,VWS V14.01,2013-03-09 22:06:00,
2013-03-09 17:11:00,40.9,30.8,30.16,ESE,122,5.0,11.0,67,0.00,,---,0.00,VWS V14.01,2013-03-09 22:11:00,
2013-03-09 17:16:00,40.9,30.8,30.16,East,96,5.0,11.0,67,0.00,,---,0.00,VWS V14.01,2013-03-09 22:16:00,
2013-03-09 17:21:00,40.9,30.8,30.16,East,101,6.0,11.0,67,0.00,,---,0.00,VWS V14.01,2013-03-09 22:21:00,
2013-03-09 17:27:00,40.9,30.8,30.16,South,169,8.0,11.0,67,0.00,,---,0.00,VWS V14.01,2013-03-09 22:27:00,
2013-03-09 17:32:00,40.9,30.8,30.16,SSE,149,4.0,11.0,67,0.00,,---,0.00,VWS V14.01,2013-03-09 22:32:00,
2013-03-09 17:37:00,40.9,31.2,30.16,SE,146,5.0,11.0,68,0.00,,---,0.00,VWS V14.01,2013-03-09 22:37:00,
2013-03-09 17:42:00,40.8,31.1,30.15,South,169,4.0,11.0,68,0.00,,---,0.00,VWS V14.01,2013-03-09 22:42:00,
2013-03-09 17:47:00,40.8,31.1,30.15,SE,131,4.0,11.0,68,0.00,,---,0.00,VWS V14.01,2013-03-09 22:47:00,
2013-03-09 17:52:00,40.7,31.0,30.15,SE,146,5.0,11.0,68,0.00,,---,0.00,VWS V14.01,2013-03-09 22:52:00,
2013-03-09 17:57:00,40.6,30.9,30.15,ESE,121,4.0,13.0,68,0.00,,---,0.00,VWS V14.01,2013-03-09 22:57:00,
2013-03-09 18:02:00,40.6,31.2,30.15,SE,146,7.0,7.0,69,0.00,,---,0.00,VWS V14.01,2013-03-09 23:02:00,
2013-03-09 18:07:00,40.5,31.1,30.15,SSE,166,4.0,11.0,69,0.00,,---,0.00,VWS V14.01,2013-03-09 23:07:00,
2013-03-09 18:13:00,40.3,31.0,30.15,SE,136,2.0,11.0,69,0.00,,---,0.00,VWS V14.01,2013-03-09 23:13:00,
2013-03-09 18:18:00,40.2,31.2,30.15,South,170,5.0,11.0,70,0.00,,---,0.00,VWS V14.01,2013-03-09 23:18:00,
2013-03-09 18:23:00,40.1,31.1,30.15,SSE,160,2.0,11.0,70,0.00,,---,0.00,VWS V14.01,2013-03-09 23:23:00,
2013-03-09 18:28:00,40.1,31.1,30.14,SE,124,5.0,11.0,70,0.00,,---,0.00,VWS V14.01,2013-03-09 23:28:00,
2013-03-09 18:33:00,40.1,31.1,30.14,ESE,110,6.0,11.0,70,0.00,,---,0.00,VWS V14.01,2013-03-09 23:33:00,
2013-03-09 18:38:00,40.1,31.1,30.13,SE,134,4.0,11.0,70,0.00,,---,0.00,VWS V14.01,2013-03-09 23:38:00,
2013-03-09 18:43:00,40.0,31.4,30.13,ESE,115,11.0,11.0,71,0.00,,---,0.00,VWS V14.01,2013-03-09 23:43:00,
2013-03-09 18:48:00,40.0,31.4,30.13,SE,139,7.0,11.0,71,0.00,,---,0.00,VWS V14.01,2013-03-09 23:48:00,
2013-03-09 18:54:00,40.0,31.4,30.12,East,101,4.0,11.0,71,0.00,,---,0.00,VWS V14.01,2013-03-09 23:54:00,
2013-03-09 18:59:00,39.9,31.3,30.12,East,101,4.0,11.0,71,0.00,,---,0.00,VWS V14.01,2013-03-09 23:59:00,
2013-03-09 19:04:00,39.9,31.6,30.11,ESE,107,8.0,12.0,72,0.00,,---,0.00,VWS V14.01,2013-03-10 00:04:00,
2013-03-09 19:09:00,39.8,31.5,30.11,ESE,113,12.0,13.0,72,0.00,,---,0.00,VWS V14.01,2013-03-10 00:09:00,
2013-03-09 19:14:00,39.8,31.5,30.11,East,85,10.0,15.0,72,0.00,,---,0.00,VWS V14.01,2013-03-10 00:14:00,
2013-03-09 19:19:00,39.8,31.5,30.10,East,96,9.0,15.0,72,0.00,,---,0.00,VWS V14.01,2013-03-10 00:19:00,
2013-03-09 19:24:00,39.7,31.4,30.11,SE,127,4.0,16.0,72,0.00,,---,0.00,VWS V14.01,2013-03-10 00:24:00,
2013-03-09 19:29:00,39.7,31.4,30.11,SE,128,8.0,16.0,72,0.00,,---,0.00,VWS V14.01,2013-03-10 00:29:00,
2013-03-09 19:34:00,39.7,31.4,30.11,East,99,10.0,16.0,72,0.00,,---,0.00,VWS V14.01,2013-03-10 00:34:00,
2013-03-09 19:39:00,39.7,31.4,30.11,ESE,108,7.0,16.0,72,0.00,,---,0.00,VWS V14.01,2013-03-10 00:39:00,
2013-03-09 19:44:00,39.7,31.8,30.11,ESE,105,8.0,16.0,73,0.00,,---,0.00,VWS V14.01,2013-03-10 00:44:00,
2013-03-09 19:50:00,39.6,31.7,30.10,SE,124,13.0,16.0,73,0.00,,---,0.00,VWS V14.01,2013-03-10 00:50:00,
2013-03-09 19:55:00,39.6,31.7,30.10,ESE,112,12.0,16.0,73,0.00,,---,0.00,VWS V14.01,2013-03-10 00:55:00,
2013-03-09 20:00:00,39.6,31.7,30.11,SE,131,5.0,16.0,73,0.00,,---,0.00,VWS V14.01,2013-03-10 01:00:00,
2013-03-09 20:05:00,39.6,32.0,30.11,SE,139,7.0,15.0,74,0.00,,---,0.00,VWS V14.01,2013-03-10 01:05:00,
2013-03-09 20:10:00,39.6,32.0,30.11,East,94,4.0,15.0,74,0.00,,---,0.00,VWS V14.01,2013-03-10 01:10:00,
2013-03-09 20:15:00,39.5,31.9,30.11,East,101,8.0,15.0,74,0.00,,---,0.00,VWS V14.01,2013-03-10 01:15:00,
2013-03-09 20:20:00,39.4,31.8,30.11,SE,141,4.0,15.0,74,0.00,,---,0.00,VWS V14.01,2013-03-10 01:20:00,
2013-03-09 20:25:00,39.3,31.7,30.11,SSE,156,5.0,15.0,74,0.00,,---,0.00,VWS V14.01,2013-03-10 01:25:00,
2013-03-09 20:31:00,39.2,31.6,30.11,SE,141,7.0,15.0,74,0.00,,---,0.00,VWS V14.01,2013-03-10 01:31:00,
2013-03-09 20:36:00,39.1,31.5,30.11,ESE,122,4.0,15.0,74,0.00,,---,0.00,VWS V14.01,2013-03-10 01:36:00,
2013-03-09 20:41:00,39.0,31.8,30.11,ESE,114,7.0,15.0,75,0.00,,---,0.00,VWS V14.01,2013-03-10 01:41:00,
2013-03-09 20:46:00,38.9,31.3,30.11,SE,132,8.0,15.0,74,0.00,,---,0.00,VWS V14.01,2013-03-10 01:46:00,
2013-03-09 20:51:00,38.9,31.3,30.11,SSE,147,4.0,15.0,74,0.00,,---,0.00,VWS V14.01,2013-03-10 01:51:00,
2013-03-09 20:56:00,38.8,31.2,30.11,SSE,150,7.0,15.0,74,0.00,,---,0.00,VWS V14.01,2013-03-10 01:56:00,
2013-03-09 21:01:00,38.7,31.1,30.11,ENE,75,3.0,15.0,74,0.00,,---,0.00,VWS V14.01,2013-03-10 02:01:00,
2013-03-09 21:06:00,38.6,31.0,30.11,ESE,111,6.0,15.0,74,0.00,,---,0.00,VWS V14.01,2013-03-10 02:06:00,
2013-03-09 21:11:00,38.5,31.0,30.11,SSE,153,7.0,15.0,74,0.00,,---,0.00,VWS V14.01,2013-03-10 02:11:00,
2013-03-09 21:16:00,38.4,30.9,30.11,SSW,208,6.0,15.0,74,0.00,,---,0.00,VWS V14.01,2013-03-10 02:16:00,
2013-03-09 21:22:00,38.4,30.9,30.11,SSE,150,7.0,15.0,74,0.00,,---,0.00,VWS V14.01,2013-03-10 02:22:00,
2013-03-09 21:27:00,38.3,31.1,30.11,ESE,105,6.0,15.0,75,0.00,,---,0.00,VWS V14.01,2013-03-10 02:27:00,
2013-03-09 21:32:00,38.2,31.0,30.11,SSE,151,5.0,15.0,75,0.00,,---,0.00,VWS V14.01,2013-03-10 02:32:00,
2013-03-09 21:37:00,38.1,30.9,30.10,SE,127,6.0,15.0,75,0.00,,---,0.00,VWS V14.01,2013-03-10 02:37:00,
2013-03-09 21:42:00,38.0,31.1,30.10,ESE,120,4.0,15.0,76,0.00,,---,0.00,VWS V14.01,2013-03-10 02:42:00,
2013-03-09 21:47:00,38.0,31.1,30.10,South,179,10.0,15.0,76,0.00,,---,0.00,VWS V14.01,2013-03-10 02:47:00,
2013-03-09 21:53:00,37.9,31.0,30.10,ESE,120,5.0,15.0,76,0.00,,---,0.00,VWS V14.01,2013-03-10 02:53:00,
2013-03-09 21:58:00,37.9,31.0,30.09,ESE,105,7.0,15.0,76,0.00,,---,0.00,VWS V14.01,2013-03-10 02:58:00,
2013-03-09 22:03:00,37.9,31.0,30.09,ENE,73,3.0,9.0,76,0.00,,---,0.00,VWS V14.01,2013-03-10 03:03:00,
2013-03-09 22:08:00,37.9,31.4,30.09,South,172,4.0,9.0,77,0.00,,---,0.00,VWS V14.01,2013-03-10 03:08:00,
2013-03-09 22:13:00,37.9,31.4,30.09,SE,141,4.0,9.0,77,0.00,,---,0.00,VWS V14.01,2013-03-10 03:13:00,
2013-03-09 22:18:00,37.9,31.4,30.09,SE,124,6.0,9.0,77,0.00,,---,0.00,VWS V14.01,2013-03-10 03:18:00,
2013-03-09 22:23:00,37.9,31.4,30.09,SSE,150,6.0,11.0,77,0.00,,---,0.00,VWS V14.01,2013-03-10 03:23:00,
2013-03-09 22:28:00,37.9,31.4,30.08,SE,138,11.0,13.0,77,0.00,,---,0.00,VWS V14.01,2013-03-10 03:28:00,
2013-03-09 22:33:00,38.0,31.4,30.08,SE,146,8.0,16.0,77,0.00,,---,0.00,VWS V14.01,2013-03-10 03:33:00,
2013-03-09 22:38:00,38.0,31.4,30.08,SE,129,6.0,16.0,77,0.00,,---,0.00,VWS V14.01,2013-03-10 03:38:00,
2013-03-09 22:44:00,38.0,31.8,30.08,SE,145,8.0,16.0,78,0.00,,---,0.00,VWS V14.01,2013-03-10 03:44:00,
2013-03-09 22:49:00,38.0,31.8,30.08,ESE,118,5.0,16.0,78,0.00,,---,0.00,VWS V14.01,2013-03-10 03:49:00,
2013-03-09 22:54:00,38.1,31.9,30.07,ESE,117,6.0,16.0,78,0.00,,---,0.00,VWS V14.01,2013-03-10 03:54:00,
2013-03-09 22:59:00,38.2,31.6,30.07,SSE,153,4.0,16.0,77,0.00,,---,0.00,VWS V14.01,2013-03-10 03:59:00,
2013-03-09 23:04:00,38.3,32.0,30.06,SSE,155,6.0,10.0,78,0.00,,---,0.00,VWS V14.01,2013-03-10 04:04:00,
2013-03-09 23:09:00,38.3,31.7,30.06,SE,131,9.0,11.0,77,0.00,,---,0.00,VWS V14.01,2013-03-10 04:09:00,
2013-03-09 23:14:00,38.5,31.9,30.07,SSE,158,4.0,11.0,77,0.00,,---,0.00,VWS V14.01,2013-03-10 04:14:00,
2013-03-09 23:19:00,38.5,31.9,30.07,SE,139,7.0,12.0,77,0.00,,---,0.00,VWS V14.01,2013-03-10 04:19:00,
2013-03-09 23:25:00,38.6,32.0,30.07,SE,129,1.0,12.0,77,0.00,,---,0.00,VWS V14.01,2013-03-10 04:25:00,
2013-03-09 23:30:00,38.6,32.0,30.06,ESE,117,5.0,12.0,77,0.00,,---,0.00,VWS V14.01,2013-03-10 04:30:00,
2013-03-09 23:35:00,38.7,32.1,30.06,SE,128,4.0,12.0,77,0.00,,---,0.00,VWS V14.01,2013-03-10 04:35:00,
2013-03-09 23:40:00,38.6,32.0,30.06,SSE,152,0.0,12.0,77,0.00,,---,0.00,VWS V14.01,2013-03-10 04:40:00,
2013-03-09 23:45:00,38.6,32.3,30.06,ESE,117,3.0,12.0,78,0.00,,---,0.00,VWS V14.01,2013-03-10 04:45:00,
2013-03-09 23:50:00,38.5,32.2,30.06,SE,134,2.0,12.0,78,0.00,,---,0.00,VWS V14.01,2013-03-10 04:50:00,
2013-03-09 23:55:00,38.5,32.2,30.05,ESE,118,6.0,12.0,78,0.00,,---,0.00,VWS V14.01,2013-03-10 04:55:00,